Stations météo

réclame
Mon MeteoGroup
La Coruna/Alvedro, Espagne (8002): Température de l'air & dewpoint: 12.08.2018 02:00:00 - 18.08.2018 02:00:00 (CEST)La Coruna/Alvedro, Espagne (8002): Vitesse du vent: 12.08.2018 02:00:00 - 18.08.2018 02:00:00 (CEST)La Coruna/Alvedro, Espagne (8002): Direction du vent: 12.08.2018 02:00:00 - 18.08.2018 02:00:00 (CEST)La Coruna/Alvedro, Espagne (8002): reduced air pressure: 12.08.2018 02:00:00 - 18.08.2018 02:00:00 (CEST)La Coruna/Alvedro, Espagne (8002): visibility: 12.08.2018 02:00:00 - 18.08.2018 02:00:00 (CEST)
Date & Time tt [°C] td [°C] ff [km/h] ff [knt] dd ppp [hPa] vv [km]
18.08.2018 02:00:00 16,6 12,9 8 4 N 1023,2 30
18.08.2018 01:00:00 16,8 13,1 2 1 - 1023,6 10
18.08.2018 00:00:00 17,3 13,6 5 3 NNE 1023,8 10
17.08.2018 23:00:00 17,8 13,5 9 5 NNE 1023,6 10
17.08.2018 22:00:00 18,6 13,0 11 6 NE 1023,0 10
17.08.2018 21:00:00 19,8 12,9 16 9 ENE 1022,7 10
17.08.2018 20:00:00 21,0 12,7 22 12 ENE 1022,5 10
17.08.2018 19:00:00 21,9 13,3 16 9 NE 1022,6 10
17.08.2018 18:00:00 22,8 13,7 21 11 ENE 1022,7 10
17.08.2018 17:00:00 22,1 12,8 24 13 NE 1023,2 10
17.08.2018 16:00:00 22,5 12,6 28 15 NE 1023,6 30
17.08.2018 15:00:00 21,2 12,7 21 11 NE 1024,1 10
17.08.2018 14:00:00 20,9 12,5 22 12 NNE 1024,2 30
17.08.2018 13:00:00 20,1 12,7 15 8 NNE 1024,5 10
17.08.2018 12:00:00 19,7 13,3 21 11 ENE 1024,7 10
17.08.2018 11:00:00 19,3 13,0 18 10 NE 1024,7 30
17.08.2018 10:00:00 17,8 12,3 11 6 NNE 1024,3 10
17.08.2018 09:00:00 16,3 12,3 5 3 NNE 1024,3 10
17.08.2018 08:00:00 15,5 12,1 8 4 NE 1024,0 30
17.08.2018 07:00:00 15,8 12,1 4 2 - 1023,6 10
17.08.2018 06:00:00 16,1 11,9 5 3 N 1023,3 10
17.08.2018 05:00:00 16,4 12,2 9 5 N 1023,1 10
17.08.2018 04:00:00 16,6 11,9 9 5 NNE 1022,9 10
17.08.2018 03:00:00 17,0 11,7 11 6 N 1023,1 10
17.08.2018 02:00:00 17,7 12,4 15 8 NNE 1023,1 10
17.08.2018 01:00:00 17,8 13,3 16 9 N 1022,9 10
17.08.2018 00:00:00 17,8 14,9 16 9 NNE 1022,6 10
16.08.2018 23:00:00 18,1 15,9 16 9 N 1022,2 10
16.08.2018 22:00:00 18,5 16,2 13 7 N 1021,5 10
16.08.2018 21:00:00 18,3 16,3 11 6 N 1021,1 10
16.08.2018 20:00:00 16,9 16,3 16 9 N 1020,8 5
16.08.2018 19:00:00 18,7 17,2 22 12 N 1020,7 10
16.08.2018 18:00:00 20,7 16,5 18 10 N 1020,5 10
16.08.2018 17:00:00 21,4 16,7 21 11 N 1020,4 10
16.08.2018 16:00:00 22,6 15,7 18 10 N 1020,2 10
16.08.2018 15:00:00 21,9 16,0 21 11 N 1020,2 10
16.08.2018 14:00:00 21,2 16,4 22 12 N 1020,2 10
16.08.2018 13:00:00 20,7 16,0 21 11 N 1020,2 10
16.08.2018 12:00:00 20,4 16,4 16 9 N 1019,8 10
16.08.2018 11:00:00 20,8 17,6 15 8 N 1019,5 10
16.08.2018 10:00:00 20,5 17,5 9 5 N 1019,3 10
16.08.2018 09:00:00 19,3 17,6 5 3 N 1019,1 10
16.08.2018 08:00:00 18,9 17,9 9 5 N 1018,9 10
16.08.2018 07:00:00 18,4 17,4 8 4 N 1018,3 10
16.08.2018 06:00:00 18,1 17,5 5 3 N 1018,1 8
16.08.2018 05:00:00 18,1 17,3 8 4 N 1018,1 10
16.08.2018 04:00:00 17,8 16,0 5 3 N 1018,0 21
16.08.2018 03:00:00 18,7 16,1 5 3 NNW 1018,2 30
16.08.2018 02:00:00 18,8 16,2 8 4 NNW 1018,2 10
16.08.2018 01:00:00 19,0 16,2 8 4 NNW 1017,7 10
16.08.2018 00:00:00 19,6 16,4 8 4 N 1017,4 10
15.08.2018 23:00:00 20,2 16,6 8 4 NNW 1016,9 10
15.08.2018 22:00:00 21,2 17,0 8 4 NNW 1016,2 10
15.08.2018 21:00:00 24,3 17,4 11 6 NNW 1015,5 30
15.08.2018 20:00:00 25,6 18,2 9 5 N 1015,1 10
15.08.2018 19:00:00 26,1 17,8 11 6 N 1015,3 10
15.08.2018 18:00:00 27,1 17,8 9 5 N 1015,6 10
15.08.2018 17:00:00 26,2 17,7 13 7 N 1016,0 10
15.08.2018 16:00:00 26,2 17,1 11 6 N 1016,3 10
15.08.2018 15:00:00 26,7 17,1 11 6 N 1016,6 30
15.08.2018 14:00:00 26,0 16,4 9 5 N 1016,8 30
15.08.2018 13:00:00 24,6 16,2 8 4 NNW 1017,3 30
15.08.2018 12:00:00 22,3 14,7 8 4 N 1017,6 10
15.08.2018 11:00:00 21,1 15,6 4 2 - 1017,5 10
15.08.2018 10:00:00 19,0 15,2 2 1 S 1017,5 10
15.08.2018 09:00:00 14,8 13,8 8 4 S 1017,7 10
15.08.2018 08:00:00 13,3 12,7 8 4 S 1017,8 10
15.08.2018 07:00:00 14,0 13,4 4 2 - 1017,7 10
15.08.2018 06:00:00 14,1 13,3 5 3 S 1018,2 10
15.08.2018 05:00:00 14,7 13,6 5 3 SSW 1018,8 10
15.08.2018 04:00:00 17,0 15,0 4 2 - 1019,1 10
15.08.2018 03:00:00 17,2 15,0 4 2 - 1019,5 10
15.08.2018 02:00:00 17,6 15,2 2 1 - 1020,1 10
15.08.2018 01:00:00 18,1 15,4 5 3 N 1020,1 10
15.08.2018 00:00:00 18,7 15,4 5 3 NNE 1020,4 10
14.08.2018 23:00:00 19,3 15,6 8 4 N 1020,6 10
14.08.2018 22:00:00 20,2 16,0 15 8 NNE 1020,0 10
14.08.2018 21:00:00 22,5 16,3 9 5 N 1019,2 10
14.08.2018 20:00:00 24,1 16,9 13 7 N 1019,0 10
14.08.2018 19:00:00 25,3 17,9 11 6 N 1019,0 10
14.08.2018 18:00:00 25,1 17,4 16 9 N 1019,2 10
14.08.2018 17:00:00 24,9 17,1 16 9 N 1019,4 10
14.08.2018 16:00:00 24,1 16,9 15 8 N 1019,9 10
14.08.2018 15:00:00 23,9 16,6 15 8 N 1020,7 30
14.08.2018 14:00:00 23,4 16,2 11 6 N 1021,0 10
14.08.2018 13:00:00 22,4 15,7 11 6 N 1021,4 10
14.08.2018 12:00:00 21,7 16,0 11 6 NNE 1021,6 10
14.08.2018 11:00:00 20,5 15,6 11 6 NE 1021,6 30
14.08.2018 10:00:00 19,7 15,3 9 5 ENE 1021,7 10
14.08.2018 09:00:00 18,0 15,1 8 4 NE 1021,7 10
14.08.2018 08:00:00 18,1 15,0 5 3 NNE 1021,6 10
14.08.2018 07:00:00 17,9 15,0 8 4 N 1021,3 10
14.08.2018 06:00:00 18,0 15,3 5 3 NNE 1021,1 10
14.08.2018 05:00:00 18,0 15,4 5 3 N 1020,9 10
14.08.2018 04:00:00 17,9 15,5 5 3 NNE 1021,1 10
14.08.2018 03:00:00 18,0 15,4 9 5 NE 1021,2 30
14.08.2018 02:00:00 18,0 16,2 4 2 NNE 1021,2 25
14.08.2018 01:00:00 18,0 16,2 4 2 N 1021,0 30
14.08.2018 00:00:00 17,9 16,1 4 2 - 1021,1 10
13.08.2018 23:00:00 17,9 15,9 8 4 N 1020,9 10
13.08.2018 22:00:00 17,8 15,8 8 4 N 1020,4 10
13.08.2018 21:00:00 18,3 15,9 11 6 N 1020,1 30
13.08.2018 20:00:00 18,7 15,3 11 6 N 1019,8 10
13.08.2018 19:00:00 19,3 15,4 9 5 N 1019,8 10
13.08.2018 18:00:00 19,3 15,4 11 6 NNE 1019,6 10
13.08.2018 17:00:00 19,4 15,5 13 7 N 1019,7 10
13.08.2018 16:00:00 20,0 15,8 16 9 N 1019,7 10
13.08.2018 15:00:00 20,8 16,2 13 7 NNW 1019,3 10
13.08.2018 14:00:00 19,9 15,6 11 6 NW 1019,4 10
13.08.2018 13:00:00 18,2 16,5 9 5 NW 1019,6 10
13.08.2018 12:00:00 18,4 16,4 9 5 NW 1019,2 10
13.08.2018 11:00:00 18,8 16,1 5 3 W 1018,8 10
13.08.2018 10:00:00 18,0 16,5 4 2 - 1018,5 10
13.08.2018 09:00:00 16,9 16,1 4 2 - 1018,1 10
13.08.2018 08:00:00 16,8 15,8 4 2 W 1017,6 30
13.08.2018 07:00:00 16,3 15,8 9 5 S 1017,2 10
13.08.2018 06:00:00 16,3 15,8 9 5 S 1017,1 12
13.08.2018 05:00:00 16,5 15,7 5 3 SW 1017,1 2,9
13.08.2018 04:00:00 16,3 15,2 8 4 S 1017,2 10
13.08.2018 03:00:00 16,3 15,3 11 6 SW 1017,5 9
13.08.2018 02:00:00 17,1 14,8 8 4 SW 1017,7 4,3
13.08.2018 01:00:00 17,1 14,4 8 4 SSW 1017,7 10
13.08.2018 00:00:00 17,6 14,1 11 6 SW 1017,8 10
12.08.2018 23:00:00 17,9 13,6 8 4 WSW 1017,7 10
12.08.2018 22:00:00 17,7 13,2 13 7 WNW 1017,3 10
12.08.2018 21:00:00 18,3 14,4 16 9 NW 1016,6 10
12.08.2018 20:00:00 19,2 14,9 15 8 NW 1016,6 10
12.08.2018 19:00:00 19,3 16,8 11 6 NNW 1016,8 10
12.08.2018 18:00:00 19,8 17,4 21 11 NW 1016,7 10
12.08.2018 17:00:00 21,1 18,9 15 8 NNW 1016,3 8
12.08.2018 16:00:00 22,9 20,0 9 5 WNW 1016,1 10
12.08.2018 15:00:00 23,0 19,0 11 6 WNW 1016,3 10
12.08.2018 14:00:00 25,1 18,1 16 9 SSW 1016,0 30
12.08.2018 13:00:00 23,6 18,2 8 4 S 1016,5 10
12.08.2018 12:00:00 20,6 16,8 5 3 S 1016,9 10
12.08.2018 11:00:00 18,7 16,0 8 4 SSE 1016,9 10
12.08.2018 10:00:00 16,6 15,0 9 5 S 1017,0 10
12.08.2018 09:00:00 15,9 14,6 4 2 - 1017,2 10
12.08.2018 08:00:00 15,2 14,2 2 1 - 1016,9 10
12.08.2018 07:00:00 14,8 14,2 11 6 S 1016,8 6
12.08.2018 06:00:00 15,1 14,5 8 4 SSE 1017,4 6
12.08.2018 05:00:00 15,5 14,9 8 4 S 1017,8 6
12.08.2018 04:00:00 16,1 15,1 5 3 S 1018,3 10
12.08.2018 03:00:00 16,8 15,8 5 3 S 1018,8 10
12.08.2018 02:00:00 17,5 16,4 8 4 S 1019,4 10

tt = Température de l'air
td = dewpoint
ff = Vitesse du vent
dd = Direction du vent
ppp = reduced air pressure
vv = visibility

stations d'obs. à proximité